Location: Namasale
(1.5000°N, 32.6167°E)
Time: 16:58:49
(UTC+00:00)

Vanguard 2 Rocket - Pass Details

Date: 25 April 2021
Orbit: 554 x 3326 km, 32.9° (Epoch: 10 May)

Event Time Altitude Azimuth Distance (km) Brightness Sun altitude
Rises 18:56:21 0° 294° (WNW) 6,533 12.0 -45.0°
Reaches altitude 10° 19:01:33 10° 289° (WNW) 5,110 11.3 -46.2°
Enters shadow 19:11:54 41° 250° (WSW) 2,401 9.0 -48.7°
